Location: Andrest
(43.3200°N, 0.0641°E)
Time: 22:02:29
(UTC+00:00)

Cosmos 1869 Rocket - Pass Details

Date: 01 December 2020
Orbit: 604 x 634 km, 82.5° (Epoch: 19 January)

Event Time Altitude Azimuth Distance (km) Brightness Sun altitude
Rises 18:11:47 0° 357° (N) 2,942 6.9 -18.9°
Reaches altitude 10° 18:14:06 10° 3° (N) 2,027 6.0 -19.3°
Enters shadow 18:17:51 45° 52° (NE) 872 3.9 -19.9°
Exits shadow 18:22:34 11° 152° (SSE) 1,927 5.9 -20.8°
Drops below altitude 10° 18:22:50 10° 153° (SSE) 2,034 6.0 -20.8°
Sets 18:25:02 0° 159° (SSE) 2,899 6.9 -21.2°
